Wind_Speed
7 10 12 10 7 5 5 3 3 4 6 7 8 8 10 13 17 18 18 20 20 19 20 23 24 23 26 30 32 31 33 35
6 6 6 11 10 7 5 6 8 9 12 12 12 11 12 13 16 17 19 20 21 19 21 22 23 26 29 31 34 32 33 35
13 10 9 10 10 10 11 10 10 13 15 15 16 16 14 17 17 21 21 19 18 19 22 26 29 29 28 33 33 34 35 34
16 15 14 15 14 13 14 14 14 16 19 20 20 18 16 17 18 18 18 19 20 24 28 29 30 31 34 36 36 37 36 34
18 18 17 17 19 19 20 19 18 20 21 23 19 16 16 18 18 17 19 21 26 28 26 26 27 33 31 35 37 36 38 36
24 21 20 20 20 20 22 24 24 23 25 23 16 16 17 18 19 19 21 24 28 26 28 31 34 42 40 36 37 38 38 38
25 26 24 23 25 23 22 24 30 28 25 17 14 16 16 19 21 21 23 26 29 32 35 34 32 40 44 38 36 41 40 40
30 28 28 26 29 27 24 28 27 30 23 18 18 19 18 20 23 26 30 32 35 35 35 42 41 41 44 33 37 40 41 41
24 25 26 27 27 25 25 24 21 24 21 18 21 21 22 24 29 33 35 36 38 42 48 43 41 32 38 37 37 40 42 42
26 27 24 24 29 26 27 23 21 23 21 22 23 25 28 32 35 38 40 43 42 47 47 53 51 40 37 36 37 40 42 40
22 25 28 30 28 26 25 25 24 24 25 25 26 28 31 35 36 39 43 44 41 53 50 53 51 42 35 34 36 40 38 38
9 10 13 14 17 20 22 24 23 26 27 29 32 34 35 37 38 39 41 57 46 47 53 50 43 35 35 37 38 34 34 37
9 9 11 11 12 17 18 17 18 20 21 23 26 31 32 36 38 44 50 46 51 52 51 48 40 39 37 31 30 35 35 36
13 17 18 18 20 17 17 22 25 26 30 30 31 33 34 37 40 42 44 46 51 53 49 43 39 35 31 30 32 33 36 35
17 20 21 22 21 21 23 27 29 30 29 30 33 36 36 39 41 43 46 48 53 55 49 39 38 42 30 30 30 32 35 34
16 19 22 24 25 27 29 32 30 30 29 31 30 35 40 43 43 48 51 53 55 51 40 36 41 36 29 28 32 32 33 34
15 19 21 23 24 24 27 28 29 30 32 33 37 39 39 44 49 56 59 54 55 43 40 45 33 26 26 30 33 32 31 32
18 18 20 20 19 20 24 27 30 33 34 35 36 41 44 48 53 57 58 49 33 40 37 27 25 26 30 32 33 32 32 32
15 18 19 19 22 23 26 30 33 36 37 38 40 44 48 51 58 50 34 40 38 26 27 25 27 31 32 32 33 32 32 33
Wind_Direction
127 126 136 153 161 169 166 177 241 245 262 280 292 273 276 272 276 280 282 286 289 284 279 279 281 292 299 298 296 295 296 298
200 173 174 170 186 182 178 218 252 257 270 279 278 283 272 262 265 267 268 272 271 272 273 277 286 292 293 294 291 290 296 299
230 230 224 213 213 211 217 232 261 273 277 272 272 275 264 255 253 254 257 266 274 274 277 281 281 285 289 301 295 296 297 298
249 250 250 243 247 247 245 254 269 278 275 269 275 267 261 252 256 256 275 279 278 278 279 281 276 292 290 300 297 295 296 298
263 266 272 282 274 274 271 268 266 272 268 271 271 264 264 265 266 276 283 275 273 281 290 299 288 299 293 297 295 296 296 297
267 273 282 285 291 282 278 266 264 268 270 271 255 264 272 277 277 283 283 280 284 294 293 292 306 308 300 296 299 294 294 297
260 266 267 276 281 275 278 267 273 272 278 259 267 281 298 286 277 285 284 287 291 292 292 291 293 313 303 298 299 297 298 302
250 256 259 267 278 277 276 279 267 270 267 260 284 296 291 279 275 280 282 285 290 287 280 289 296 305 298 297 295 297 298 297
245 258 263 267 273 277 282 285 269 262 260 268 282 282 281 284 276 279 284 283 277 282 292 296 284 290 294 291 294 293 295 295
249 259 263 261 271 271 276 275 271 258 262 269 279 281 283 287 285 279 280 277 296 281 300 302 287 291 287 296 293 294 294 296
253 264 269 264 267 272 274 276 265 253 263 270 280 281 281 282 281 278 278 287 292 292 299 289 294 291 296 289 291 292 296 303
255 259 266 264 264 267 269 273 270 272 278 277 281 280 277 278 283 285 288 293 300 297 292 296 294 292 285 293 297 299 304 303
284 294 298 301 304 295 290 292 290 285 288 293 291 294 294 291 293 294 281 302 303 296 290 291 288 289 296 299 299 303 304 304
290 283 293 302 309 308 302 299 294 291 291 292 291 293 293 293 294 292 296 301 298 297 292 291 291 292 294 296 303 304 303 304
277 282 291 298 296 289 291 274 283 285 291 296 291 294 293 292 294 297 304 304 299 295 290 285 286 302 298 298 307 308 303 303
263 278 284 287 284 283 282 274 286 291 295 299 294 295 287 288 291 303 302 294 298 288 275 293 304 293 296 311 310 305 298 298
264 269 280 272 273 280 281 285 288 297 297 293 292 295 300 302 296 295 286 287 281 275 298 304 299 304 316 310 302 302 298 298
296 294 281 271 269 278 282 287 292 296 293 291 289 289 295 293 292 287 281 281 296 309 306 303 317 315 308 305 303 300 299 295
296 286 288 290 293 288 293 291 292 292 293 290 288 286 289 298 290 273 299 308 313 315 315 313 309 308 307 304 300 298 298 299
Height
3141 3143 3145 3146 3146 3149 3152 3153 3155 3157 3159 3161 3162 3162 3162 3162 3161 3161 3160 3159 3157 3157 3157 3157 3156 3153 3151 3149 3148 3145 3142 3139
3140 3141 3143 3146 3148 3148 3151 3153 3155 3157 3158 3159 3159 3159 3159 3159 3159 3158 3158 3157 3157 3156 3155 3153 3150 3149 3147 3145 3142 3139 3135 3131
3138 3140 3143 3146 3149 3150 3151 3152 3153 3155 3156 3155 3156 3156 3156 3156 3156 3155 3155 3154 3152 3151 3151 3149 3147 3145 3143 3139 3134 3130 3127 3123
3136 3139 3143 3145 3146 3148 3149 3150 3151 3150 3150 3150 3152 3152 3152 3151 3152 3150 3148 3146 3146 3146 3147 3145 3143 3141 3137 3132 3127 3123 3118 3115
3132 3135 3137 3139 3142 3144 3145 3146 3147 3146 3146 3146 3147 3147 3146 3145 3144 3143 3144 3144 3144 3143 3142 3140 3137 3133 3129 3125 3121 3116 3111 3107
3128 3131 3133 3134 3136 3139 3141 3141 3140 3142 3141 3141 3141 3141 3142 3141 3141 3141 3141 3140 3139 3139 3136 3132 3127 3124 3120 3116 3112 3108 3102 3097
3129 3128 3129 3131 3133 3134 3135 3134 3134 3134 3134 3135 3136 3138 3138 3138 3137 3138 3137 3135 3132 3129 3125 3120 3116 3114 3111 3106 3102 3097 3093 3088
3125 3126 3127 3129 3129 3131 3131 3130 3129 3129 3131 3132 3133 3133 3134 3133 3132 3131 3129 3126 3122 3119 3116 3112 3108 3103 3099 3095 3092 3088 3084 3079
3123 3124 3126 3127 3127 3127 3126 3126 3125 3125 3127 3128 3128 3127 3126 3126 3125 3122 3118 3116 3113 3110 3105 3103 3097 3091 3089 3086 3084 3081 3075 3071
3120 3122 3124 3125 3123 3124 3123 3123 3122 3121 3122 3123 3122 3120 3119 3118 3116 3114 3112 3108 3105 3100 3099 3095 3090 3084 3080 3079 3076 3072 3066 3061
3117 3119 3119 3121 3120 3118 3118 3118 3118 3119 3119 3118 3117 3116 3115 3113 3111 3108 3106 3105 3100 3096 3092 3087 3082 3076 3073 3071 3066 3061 3057 3051
3114 3114 3114 3114 3114 3114 3113 3113 3112 3112 3113 3114 3114 3113 3111 3109 3107 3105 3102 3095 3093 3090 3084 3079 3072 3067 3064 3062 3057 3052 3046 3040
3110 3110 3110 3110 3110 3109 3107 3106 3106 3108 3108 3108 3107 3106 3103 3101 3099 3095 3091 3089 3084 3080 3075 3068 3063 3059 3057 3053 3048 3042 3038 3033
3103 3104 3104 3104 3104 3104 3103 3101 3101 3101 3100 3100 3099 3097 3095 3093 3090 3088 3084 3079 3074 3069 3062 3057 3053 3049 3046 3044 3040 3035 3030 3025
3100 3099 3098 3098 3098 3099 3098 3097 3097 3096 3095 3093 3091 3089 3086 3085 3082 3078 3073 3068 3062 3057 3051 3046 3043 3041 3037 3033 3029 3026 3021 3016
3096 3095 3094 3094 3093 3093 3093 3091 3090 3089 3087 3085 3084 3082 3078 3074 3069 3066 3062 3056 3051 3045 3039 3040 3037 3031 3028 3024 3022 3018 3013 3010
3092 3091 3090 3089 3089 3088 3086 3085 3084 3082 3079 3077 3076 3072 3071 3067 3063 3057 3050 3044 3038 3035 3037 3033 3029 3025 3021 3018 3014 3010 3006 3002
3088 3088 3086 3085 3085 3084 3084 3081 3078 3076 3074 3071 3068 3065 3061 3057 3051 3044 3037 3035 3036 3034 3028 3024 3021 3018 3015 3010 3005 3001 2998 2994
3084 3082 3081 3080 3079 3079 3077 3075 3072 3069 3066 3063 3060 3056 3050 3045 3038 3035 3036 3034 3029 3025 3022 3018 3014 3010 3006 3002 2998 2994 2990 2986